Warroad, MN

11:06 PM CDT on March 29, 2017 (GMT -0500)
Warroad International-Carlson

Weather History for KRRT - April, 2013

Change the Weather History Date:

Tuesday, April 30, 2013

  Actual Average Record
Temperature  
Mean Temperature 42 °F -  
Max Temperature 53 °F 55 °F 88 °F (1952)
Min Temperature 28 °F 34 °F 15 °F (1966)
Degree Days  
Heating Degree Days 24    
Moisture  
Dew Point 37 °F    
Average Humidity 83    
Maximum Humidity 87    
Minimum Humidity 75    
Precipitation  
Precipitation 1.07 in - - ()
Sea Level Pressure  
Sea Level Pressure 29.54 in    
Wind  
Wind Speed 11 mph (WNW)    
Max Wind Speed 28 mph    
Max Gust Speed 36 mph    
Visibility 8 miles    
Events Rain , Thunderstorm    
Averages and records for this station are not official NWS values.
T = Trace of Precipitation, MM = Missing Value Source: NWS Daily Summary

Daily Weather History Graph

Daily Weather History Graph

Search for Another Location

Airport or City:

Trip Planner

Search our weather history database for the weather conditions in past years. The results will help you decide how hot, cold, wet, or windy it might be!

Date:

Astronomy

Apr. 30, 2013 Rise Set
Actual Time 6:01 AM CDT 8:36 PM CDT
Civil Twilight 5:26 AM CDT 9:11 PM CDT
Nautical Twilight 4:41 AM CDT 9:56 PM CDT
Astronomical Twilight 3:49 AM CDT 10:49 PM CDT
Moon 1:05 AM CDT 10:26 AM CDT
Length of Visible Light 15h 45m
Length of Day
14h 34m
Waning Gibbous, 70% of the Moon is Illuminated
Apr 30
Waning Gibbous
May 2
Last Quarter
May 9
New
May 17
First Quarter
May 24
Full

Hourly Weather History & Observations

Time (CDT) Temp. Windchill Dew Point Humidity Pressure Visibility Wind Dir Wind Speed Gust Speed Precip Events Conditions
12:14 AM 42.8 °F 39.3 °F 39.2 °F 87% 29.55 in 10.0 mi East 5.8 mph - 0.01 in Rain Light Rain
12:34 AM 41.0 °F 36.4 °F 37.4 °F 87% 29.55 in 7.0 mi East 6.9 mph - 0.01 in   Overcast
12:54 AM 42.8 °F 38.6 °F 37.4 °F 81% 29.54 in 5.0 mi ESE 6.9 mph - 0.04 in   Overcast
1:14 AM 44.6 °F 39.7 °F 41.0 °F 87% 29.54 in 10.0 mi ESE 9.2 mph - 0.01 in   Light Drizzle
1:34 AM 44.6 °F 39.7 °F 41.0 °F 87% 29.53 in 10.0 mi East 9.2 mph - 0.01 in Rain Rain
1:54 AM 44.6 °F 43.1 °F 41.0 °F 87% 29.54 in 7.0 mi SE 3.5 mph - 0.04 in Rain Rain
2:14 AM 44.6 °F 41.4 °F 39.2 °F 81% 29.53 in 7.0 mi ENE 5.8 mph - 0.03 in Rain Rain
2:34 AM 42.8 °F 41.1 °F 39.2 °F 87% 29.51 in 5.0 mi NE 3.5 mph - 0.07 in Rain Rain
2:53 AM 42.8 °F 39.3 °F 37.4 °F 81% 29.50 in 7.0 mi NE 5.8 mph - 0.10 in   Overcast
3:14 AM 44.6 °F 39.7 °F 39.2 °F 81% 29.48 in 10.0 mi NNE 9.2 mph - 0.02 in   Overcast
3:34 AM 44.6 °F 39.2 °F 39.2 °F 81% 29.47 in 10.0 mi North 10.4 mph - 0.02 in Rain Rain
3:54 AM 46.4 °F 41.5 °F 42.8 °F 87% 29.45 in 10.0 mi North 10.4 mph - 0.03 in Rain Light Rain
4:14 AM 44.6 °F 39.2 °F 41.0 °F 87% 29.44 in 10.0 mi NNE 10.4 mph - N/A Rain Light Rain
4:34 AM 44.6 °F 41.4 °F 41.0 °F 87% 29.45 in 7.0 mi NNW 5.8 mph - 0.01 in Rain Rain
4:54 AM 44.6 °F 39.7 °F 39.2 °F 81% 29.44 in 5.0 mi NNE 9.2 mph - 0.03 in Rain Rain
5:14 AM 42.8 °F 36.6 °F 37.4 °F 81% 29.42 in 7.0 mi NE 11.5 mph - 0.03 in Thunderstorm Thunderstorm
5:34 AM 39.2 °F 31.2 °F 35.6 °F 87% 29.39 in 7.0 mi ENE 13.8 mph - 0.05 in Thunderstorm Overcast
5:54 AM 39.2 °F 32.5 °F 35.6 °F 87% 29.36 in 10.0 mi NNE 10.4 mph 18.4 mph 0.06 in   Overcast
6:13 AM 39.2 °F 33.6 °F 35.6 °F 87% 29.36 in 5.0 mi North 8.1 mph - 0.01 in   Overcast
6:34 AM 39.2 °F - 35.6 °F 87% 29.39 in 2.0 mi Calm Calm - 0.14 in Thunderstorm Overcast
6:52 AM 39.2 °F 33.0 °F 35.6 °F 87% 29.36 in 1.5 mi North 9.2 mph - 0.36 in Thunderstorm Thunderstorm
7:14 AM 39.2 °F 32.5 °F 35.6 °F 87% 29.38 in 1.2 mi North 10.4 mph - 0.18 in Thunderstorm Thunderstorm
7:34 AM 41.0 °F 33.5 °F 37.4 °F 87% 29.34 in 10.0 mi NNW 13.8 mph - 0.23 in Thunderstorm Thunderstorm
7:54 AM 41.0 °F 34.7 °F 37.4 °F 87% 29.32 in 1.8 mi NNW 10.4 mph 20.7 mph 0.33 in   Overcast
8:14 AM 41.0 °F 34.3 °F 37.4 °F 87% 29.30 in 2.5 mi NNE 11.5 mph - 0.03 in   Overcast
8:33 AM 41.0 °F 33.5 °F 37.4 °F 87% 29.29 in 5.0 mi NNE 13.8 mph - 0.03 in   Overcast
8:54 AM 41.0 °F 35.8 °F 37.4 °F 87% 29.29 in 2.5 mi NNW 8.1 mph - 0.04 in   Overcast
9:14 AM 42.8 °F 36.2 °F 37.4 °F 81% 29.32 in 2.0 mi West 12.7 mph - N/A   Overcast
9:33 AM 42.8 °F 37.0 °F 37.4 °F 81% 29.30 in 3.0 mi WNW 10.4 mph - 0.02 in   Overcast
9:54 AM 42.8 °F 35.8 °F 39.2 °F 87% 29.30 in 4.0 mi WNW 13.8 mph - 0.03 in   Drizzle
10:14 AM 44.6 °F 38.4 °F 39.2 °F 81% 29.33 in 10.0 mi West 12.7 mph - N/A   Overcast
10:34 AM 44.6 °F 37.4 °F 41.0 °F 87% 29.35 in 4.0 mi West 16.1 mph 21.9 mph N/A Rain Light Rain
10:54 AM 46.4 °F 39.8 °F 42.8 °F 87% 29.36 in 10.0 mi West 16.1 mph 24.2 mph N/A   Light Drizzle
11:14 AM 48.2 °F - 44.6 °F 87% 29.37 in 10.0 mi WNW 15.0 mph 26.5 mph N/A   Mostly Cloudy
11:34 AM 48.2 °F - 44.6 °F 87% 29.38 in 10.0 mi West 10.4 mph 20.7 mph N/A   Overcast
11:54 AM 46.4 °F 41.5 °F 42.8 °F 87% 29.39 in 5.0 mi West 10.4 mph 16.1 mph 0.01 in Rain Rain
12:14 PM 48.2 °F - 44.6 °F 87% 29.39 in 10.0 mi WNW 10.4 mph - N/A   Light Drizzle
12:34 PM 48.2 °F - 44.6 °F 87% 29.40 in 10.0 mi West 11.5 mph 16.1 mph N/A   Mostly Cloudy
12:54 PM 51.8 °F - 46.4 °F 82% 29.41 in 10.0 mi West 8.1 mph 17.3 mph N/A   Mostly Cloudy
1:14 PM 51.8 °F - 46.4 °F 82% 29.42 in 10.0 mi WSW 12.7 mph 18.4 mph N/A   Mostly Cloudy
1:34 PM 53.6 °F - 48.2 °F 82% 29.44 in 10.0 mi SW 19.6 mph 28.8 mph N/A   Mostly Cloudy
1:54 PM 48.2 °F - 44.6 °F 87% 29.46 in 10.0 mi WSW 20.7 mph 31.1 mph N/A   Overcast
2:14 PM 48.2 °F - 42.8 °F 82% 29.48 in 10.0 mi WSW 17.3 mph 33.4 mph N/A   Overcast
2:34 PM 46.4 °F 38.7 °F 42.8 °F 87% 29.50 in 10.0 mi WSW 20.7 mph 34.5 mph N/A   Overcast
2:54 PM 44.6 °F 36.9 °F 41.0 °F 87% 29.52 in 10.0 mi SW 18.4 mph 35.7 mph N/A   Overcast
3:14 PM 44.6 °F 36.9 °F 41.0 °F 87% 29.54 in 10.0 mi WSW 18.4 mph 28.8 mph N/A   Overcast
3:34 PM 44.6 °F 37.4 °F 39.2 °F 81% 29.56 in 10.0 mi WSW 16.1 mph 26.5 mph N/A   Overcast
3:54 PM 44.6 °F 37.2 °F 39.2 °F 81% 29.57 in 10.0 mi WSW 17.3 mph 27.6 mph N/A   Overcast
4:14 PM 46.4 °F 39.5 °F 39.2 °F 76% 29.58 in 10.0 mi WSW 17.3 mph 25.3 mph N/A   Overcast
4:34 PM 46.4 °F 40.7 °F 39.2 °F 76% 29.59 in 10.0 mi West 12.7 mph 23.0 mph N/A   Overcast
4:54 PM 44.6 °F 36.9 °F 39.2 °F 81% 29.61 in 10.0 mi West 18.4 mph 27.6 mph N/A   Overcast
5:14 PM 44.6 °F 37.2 °F 39.2 °F 81% 29.63 in 10.0 mi WSW 17.3 mph 25.3 mph N/A   Overcast
5:34 PM 44.6 °F 36.9 °F 39.2 °F 81% 29.64 in 10.0 mi West 18.4 mph 25.3 mph N/A   Overcast
5:54 PM 42.8 °F 35.8 °F 37.4 °F 81% 29.66 in 10.0 mi West 13.8 mph 19.6 mph N/A   Overcast
6:14 PM 42.8 °F 36.2 °F 37.4 °F 81% 29.68 in 10.0 mi West 12.7 mph 23.0 mph N/A   Overcast
6:33 PM 41.0 °F 32.5 °F 37.4 °F 87% 29.69 in 7.0 mi WSW 17.3 mph 27.6 mph N/A   Overcast
7:13 PM 41.0 °F 31.4 °F 35.6 °F 81% 29.72 in 10.0 mi West 21.9 mph 31.1 mph N/A   Overcast
7:34 PM 39.2 °F 28.5 °F 33.8 °F 81% 29.74 in 10.0 mi West 24.2 mph 29.9 mph N/A   Overcast
7:54 PM 37.4 °F 26.9 °F 32.0 °F 81% 29.76 in 10.0 mi West 20.7 mph 31.1 mph N/A   Overcast
8:14 PM 37.4 °F 25.4 °F 30.2 °F 75% 29.78 in 10.0 mi West 27.6 mph 33.4 mph N/A   Overcast
8:34 PM 35.6 °F 26.2 °F 28.4 °F 75% 29.80 in 10.0 mi West 15.0 mph 28.8 mph N/A   Overcast
8:54 PM 35.6 °F 25.2 °F 28.4 °F 75% 29.82 in 10.0 mi West 18.4 mph 29.9 mph N/A   Overcast
9:14 PM 33.8 °F 22.2 °F 26.6 °F 75% 29.84 in 10.0 mi West 20.7 mph 26.5 mph N/A   Overcast
9:34 PM 33.8 °F 22.2 °F 26.6 °F 75% 29.85 in 10.0 mi West 20.7 mph 27.6 mph N/A   Overcast
9:54 PM 32.0 °F 21.6 °F 26.6 °F 80% 29.87 in 10.0 mi West 15.0 mph 25.3 mph N/A   Overcast
10:14 PM 32.0 °F 20.8 °F 26.6 °F 80% 29.87 in 10.0 mi West 17.3 mph 25.3 mph N/A   Overcast
10:34 PM 30.2 °F 18.5 °F 24.8 °F 80% 29.89 in 10.0 mi West 17.3 mph 23.0 mph N/A   Overcast
10:54 PM 30.2 °F 18.9 °F 24.8 °F 80% 29.89 in 10.0 mi West 16.1 mph 27.6 mph N/A   Overcast
11:14 PM 30.2 °F 18.1 °F 24.8 °F 80% 29.91 in 10.0 mi West 18.4 mph 28.8 mph N/A   Overcast
11:34 PM 30.2 °F 17.4 °F 24.8 °F 80% 29.92 in 10.0 mi West 20.7 mph 29.9 mph N/A   Overcast
11:54 PM 28.4 °F 16.2 °F 24.8 °F 86% 29.93 in 10.0 mi West 17.3 mph 27.6 mph N/A   Overcast